DECAYED

DELTA 1 DEB *, 10395 (Decayed)

Orbit data source: Space-Track

DELTA 1 DEB *, 10395 was space debris in SSO originally from a launch on Tue, 06 Nov 1973 UTC launched from the Air Force Western Test Range (AFWTR). Debris objects in space refer to the collection of defunct objects orbiting the Earth. Examples of debris include non-operational satellites, rocket bodies, and fragments generated from explosions, collisions, or faulty payload assembly.

Not visible in the next 10 days
Identifier
10395, 1973-086GK
Orbit
Decayed
Country
Flag of USUS
Related business
Manufacturer
Unknown
Mission
Decayed spacecraft
Bus & Motor
Unknown
Mass
Unknown
Launch date (UTC)
1973-11-06 (52 years ago)
Launch vehicle
Unknown
Launch site
Air Force Western Test Range (AFWTR)
Object type
Payload
Rocket body
Debris
Shape & HBR
Unknown shape, 0.1 m
Radar Cross Section
Small (<0.1 m²)

Expand to show TLE details & history
Last TLE update: 9 months ago

TLE from 9 months ago
0 DELTA 1 DEB *
1 10395U 73086GK  25018.41752771  .36362174  00000-0  27371+0 0  9993
2 10395 102.6608 338.6439 0015716 153.1875 207.0179 15.64652320318281
Epoch: 2025-01-18T10:01Z
TLE epoch observation values (Epoch: 2025-01-18T10:01:14.394Z)
Latitude
-0.00005°
Longitude
70.26683°
Altitude
386.643 km
Speed
7.673 km/s
True Right ascension
22h 34m 34s
True Declination
0° 00' 00"
Sunlit
Object was in daylight at epoch
Visualization orbit readout
Latitude
Unknown
Longitude
Unknown
Altitude
Unknown
Speed
Unknown
Apparent Right ascension
Unknown
Apparent Declination
Unknown
Sunlit
N/A
Visualization observer readout
Local Sidereal Time
16:42:31
Azimuth
Unknown
Elevation
Unknown
Doppler factor
Unknown
Orbital elements
Apogee altitude
382.06 km
Perigee altitude
360.845 km
Semi-major axis
6,749.59 km
Eccentricity
0.00157
Inclination
102.6608°
RAAN
338.6439°
Arg. of periapsis
153.1875°
True anomaly
206.93623°
Mean anomaly
207.0179°
Eccentric anomaly
206.97705°
Mean motion
3.91406 °/min
Orbital period
91.98 mins
BSTAR
0.27371
Loading maneuver chart data...
Computing Atmospheric mass density...
Loading historical data...
Loading historical data...
Loading historical data...
Loading historical data...
Loading historical data...
Loading historical data...
Loading historical data...

Documentation

Showing up to 5 results
|